Lapse_Rate
8.3 8.4 8.8 9.3 9.2 9.2 9.1 9.1 8.9 9.2 8.8 8.6 7.8 7.5 7.7 8.7 8.9 8.4 7.3 7.1 7.3 7.2 6.6 6.6 6.5 6.2 6.1 6.0 5.8 6.2 6.1 6.3 6.1 6.2 6.1 5.9 5.9 5.5 5.3 5.7 6.1 5.7 5.5 5.4
8.5 8.9 9.3 9.3 9.4 9.6 9.6 9.3 9.2 9.4 8.7 8.5 7.9 7.5 7.8 8.5 8.0 7.9 8.1 7.7 7.5 7.4 7.1 6.8 6.7 6.6 6.1 5.8 5.9 6.4 6.0 5.9 5.9 5.6 5.7 5.8 5.6 5.7 5.7 5.5 5.7 5.8 6.0 5.9
8.5 9.2 9.3 9.2 9.7 9.5 9.0 9.3 9.1 9.2 9.1 8.5 8.1 8.0 8.4 8.5 7.7 7.5 7.9 7.4 7.3 7.3 7.8 7.6 7.1 6.8 6.2 5.9 5.7 5.8 6.0 5.8 5.7 5.7 5.9 6.1 6.1 6.0 6.0 5.6 5.6 5.7 5.9 5.9
8.4 9.0 9.2 9.4 9.4 9.0 9.0 9.1 9.1 9.3 9.3 8.2 8.4 8.3 8.5 8.2 7.9 7.6 7.5 7.8 7.8 7.5 7.4 7.6 7.4 7.2 6.8 6.4 6.0 5.9 5.9 5.9 6.0 6.1 6.3 6.0 6.1 5.8 5.6 5.6 5.5 5.3 5.4 6.0
9.3 9.2 9.0 9.5 9.0 9.1 9.0 9.0 9.1 9.2 9.1 9.2 8.8 8.5 8.6 8.1 7.9 7.8 7.7 7.9 7.8 7.9 7.7 7.7 7.8 7.6 7.4 6.6 6.6 6.3 6.0 6.0 5.9 5.9 6.1 6.0 5.8 5.6 5.7 5.7 5.7 5.8 5.6 5.4
9.3 9.4 9.2 9.3 9.2 9.3 9.2 9.2 9.3 9.1 9.1 8.5 9.1 8.7 8.5 8.4 8.8 8.5 8.3 7.9 8.0 8.0 8.3 8.1 7.8 7.5 7.3 7.1 6.6 6.6 6.3 6.1 6.0 5.7 5.9 6.0 5.8 5.8 5.7 5.5 5.5 5.4 5.6 5.7
9.0 9.1 9.4 9.4 9.5 9.3 9.2 9.1 8.8 8.1 7.5 7.5 9.1 8.9 9.1 8.8 8.7 8.8 8.5 8.6 8.6 8.7 8.5 8.4 8.3 8.1 7.7 7.4 7.1 6.9 6.7 6.1 5.8 6.0 6.1 6.0 5.9 5.7 5.6 5.5 5.5 5.8 5.9 5.9
9.1 9.4 9.5 9.6 9.6 9.3 9.1 9.4 8.9 8.0 7.0 7.7 8.4 8.9 9.1 9.1 8.7 8.9 8.9 8.7 8.9 8.8 8.8 8.6 8.6 8.6 8.2 7.7 7.4 7.0 6.9 6.3 5.8 6.0 6.4 6.2 6.0 5.8 5.6 5.8 5.9 5.9 5.9 5.6
9.4 9.4 9.4 9.5 9.6 9.5 9.6 9.4 9.3 9.1 8.7 8.5 8.6 8.7 9.0 9.1 8.8 8.7 9.0 9.3 9.3 8.8 8.8 8.4 8.4 8.2 8.1 7.9 7.4 7.3 7.0 6.6 6.3 6.2 6.3 6.4 6.3 6.1 6.0 5.7 5.6 5.9 5.8 5.6
9.0 9.3 9.2 9.3 9.6 9.4 9.4 9.4 9.5 9.3 7.6 8.0 8.8 8.9 9.1 9.1 9.2 9.1 9.2 9.3 9.3 9.2 8.6 8.4 8.3 8.2 8.3 8.3 7.6 7.3 7.2 6.9 6.6 6.6 6.6 6.5 6.4 6.3 6.1 5.8 5.6 5.7 5.7 6.0
9.2 9.1 9.2 9.3 9.3 9.4 9.5 9.5 9.3 9.1 9.0 7.4 7.2 8.5 8.8 9.1 9.1 9.0 9.0 8.9 8.7 8.5 8.3 8.3 8.4 8.7 7.7 8.0 8.3 7.7 7.2 7.0 6.7 6.5 6.6 6.7 6.6 6.4 6.2 6.1 6.0 6.0 5.8 6.2
8.4 8.6 8.6 9.3 9.3 9.2 9.2 9.2 9.4 8.9 8.9 8.9 8.4 8.7 8.7 9.0 9.2 9.1 8.8 8.5 8.4 8.3 8.1 7.9 8.0 8.1 7.9 7.4 7.3 8.2 7.8 7.2 7.2 6.3 6.4 6.8 6.7 6.5 6.3 6.3 6.3 6.2 6.2 6.2
8.1 7.9 8.3 9.1 9.2 9.3 9.0 8.8 8.7 8.8 8.8 8.7 8.3 8.7 9.2 9.0 9.1 9.0 8.4 8.3 8.2 8.1 8.2 8.3 7.9 8.0 8.4 8.1 7.8 8.3 8.2 7.4 7.2 7.2 7.0 6.8 7.0 6.9 6.7 6.5 6.4 6.4 6.6 6.7
8.2 7.9 8.1 8.2 8.3 8.4 8.5 8.7 8.7 8.3 8.6 8.5 8.8 8.8 9.0 9.2 9.1 8.7 7.9 7.7 7.9 8.1 8.0 8.1 8.1 8.3 8.2 7.8 8.1 7.6 7.9 7.7 7.2 7.4 7.2 7.1 6.9 7.1 7.1 6.8 6.7 6.6 6.8 6.9
8.0 8.0 8.0 8.1 8.2 8.2 8.2 8.4 8.5 8.6 8.8 8.5 8.7 9.0 8.8 8.9 9.0 8.7 8.2 7.9 7.9 7.6 7.5 7.7 7.6 7.7 7.6 8.0 7.9 7.8 8.0 7.5 6.7 7.0 7.3 7.2 7.2 7.2 7.3 7.2 7.1 6.9 6.7 7.0
7.7 7.8 8.0 8.0 8.1 8.2 8.0 8.1 8.5 8.8 8.6 8.3 8.3 8.3 8.6 8.7 9.0 8.4 8.1 8.0 7.6 7.5 7.4 7.5 7.8 8.1 8.0 7.7 7.8 8.0 7.3 7.3 7.1 7.4 7.6 7.2 7.2 7.3 7.7 7.4 7.6 7.7 7.7 7.1
7.9 7.8 7.8 7.7 7.9 7.8 7.9 8.3 8.1 8.2 8.2 8.0 8.2 7.7 7.5 8.2 8.2 7.9 7.9 7.9 7.7 7.5 7.1 7.2 7.4 7.6 8.0 7.6 7.3 7.6 7.7 7.6 7.6 7.2 7.7 7.3 7.0 6.8 6.7 6.6 7.8 7.4 7.3 7.2
7.9 7.8 7.7 7.7 7.9 7.0 8.0 8.1 8.0 7.6 7.6 7.7 8.0 7.6 7.8 8.2 8.4 8.5 8.3 8.0 7.9 7.8 7.8 7.5 7.4 7.8 7.8 7.4 6.5 7.0 7.5 7.3 7.3 7.2 7.2 7.0 6.9 6.6 5.4 5.7 7.3 7.3 7.1 6.8
7.8 7.8 7.7 7.6 7.8 7.8 8.1 8.2 8.3 8.2 7.4 7.3 8.0 8.0 7.9 7.9 7.9 7.8 7.9 7.8 8.1 7.5 7.1 7.2 7.3 7.3 7.2 7.1 6.4 6.1 7.8 7.6 7.5 6.6 5.9 5.3 4.9 6.1 5.5 6.6 7.9 7.2 7.5 7.4
8.3 7.9 7.7 7.6 7.6 6.8 8.1 8.0 8.0 8.1 7.6 7.2 7.5 7.8 8.1 8.3 8.1 8.2 8.1 8.1 8.1 7.6 7.1 7.0 6.9 7.0 6.8 6.6 6.7 6.9 7.2 7.2 7.3 7.5 7.1 7.0 6.8 6.5 7.4 7.2 7.2 7.3 7.2 7.2
7.8 7.8 7.8 7.9 7.7 7.5 7.8 7.5 7.7 7.8 7.2 7.1 7.7 8.1 8.2 8.3 8.1 7.8 7.5 7.1 6.9 6.9 6.8 6.5 6.4 6.4 6.1 6.1 6.3 6.5 6.4 6.4 7.0 7.1 7.0 7.0 7.4 7.4 7.0 6.9 6.7 6.8 6.9 7.1
7.6 7.7 7.8 7.7 7.4 7.3 7.3 7.3 7.3 7.4 7.4 7.2 7.0 7.1 7.3 7.4 7.3 7.1 6.8 6.6 6.4 6.3 6.1 5.8 6.0 6.2 6.5 6.4 6.6 6.3 6.4 6.6 6.1 6.6 7.1 6.9 6.9 7.7 7.9 7.9 7.7 7.3 7.1 7.1
7.9 7.8 7.9 7.8 7.6 7.3 7.1 7.5 7.3 7.0 6.7 6.6 6.8 7.0 7.1 7.1 6.9 6.6 6.3 6.1 6.1 6.3 6.2 5.9 5.7 5.7 5.9 6.0 6.2 6.2 5.8 5.7 6.0 6.1 6.3 6.9 7.5 7.6 7.7 7.7 8.1 7.8 7.5 7.3
7.5 7.6 7.6 7.7 7.3 7.3 7.0 6.9 6.9 6.7 6.7 6.9 6.9 6.9 6.8 6.6 6.5 6.3 6.0 5.8 6.0 5.8 5.5 5.2 5.2 5.2 5.4 5.7 5.5 5.5 5.4 5.5 5.5 5.7 6.0 6.2 6.7 7.0 7.1 7.1 7.7 7.7 8.3 7.4
7.3 7.4 7.3 7.3 7.1 7.0 6.9 6.9 6.9 6.8 6.8 6.7 6.5 6.4 6.2 6.0 5.7 5.6 5.8 5.8 5.5 5.6 5.8 6.0 5.6 5.1 5.0 5.0 5.1 5.1 5.0 4.8 4.7 5.2 5.6 5.9 6.2 6.4 6.8 7.1 7.5 7.6 7.7 7.1
7.3 7.2 7.1 7.2 6.9 6.7 6.6 6.5 6.6 6.8 6.8 6.7 6.7 6.4 6.1 6.0 5.9 5.6 5.5 5.5 5.6 5.5 5.2 5.1 5.0 4.9 4.9 5.1 5.2 5.3 5.1 4.9 5.0 5.1 5.2 5.4 6.1 6.4 6.5 6.6 6.8 7.0 7.4 7.2
Wind_Speed
6 3 7 15 10 10 7 6 6 6 11 13 15 19 18 21 20 20 18 18 20 23 24 23 21 20 20 16 15 16 16 14 10 4 4 3 4 2 2 2 7 12 14 13
6 7 17 7 11 9 9 4 6 8 9 7 15 8 12 11 9 18 21 21 23 21 20 22 21 21 21 21 17 18 19 16 12 9 6 3 3 2 2 4 5 11 9 7
6 14 8 5 4 6 5 3 3 3 14 11 15 2 6 11 6 11 15 21 21 24 24 23 22 21 19 20 20 19 19 18 15 12 4 3 4 3 2 1 1 2 3 6
8 6 8 1 3 5 5 5 6 3 5 6 14 4 7 7 14 16 17 22 23 24 23 22 23 22 19 18 19 19 18 18 14 12 10 7 5 4 4 4 4 4 8 6
9 7 5 3 3 3 9 5 5 3 1 5 4 5 6 5 12 16 21 17 24 26 25 24 24 24 19 17 17 17 18 16 14 14 12 9 5 4 3 2 4 4 4 9
11 4 4 4 3 2 4 7 6 5 5 2 5 6 4 7 16 8 7 12 21 24 24 24 21 20 17 16 17 15 17 16 14 14 12 12 11 7 4 3 4 3 3 4
9 7 6 3 3 6 10 7 4 6 5 6 3 4 8 9 7 7 8 4 15 21 20 20 21 19 16 19 18 16 17 15 14 14 12 12 9 9 9 8 5 6 5 5
2 8 3 4 5 5 2 6 5 2 2 4 3 2 4 5 5 4 3 2 11 12 18 19 21 21 18 18 18 18 17 15 15 14 13 11 10 8 7 8 5 7 6 6
5 5 8 4 3 6 3 3 4 6 4 5 4 5 5 9 3 7 13 16 10 7 7 10 16 13 12 16 19 19 18 16 16 17 13 11 10 9 10 9 8 8 6 6
2 4 3 9 5 5 5 2 5 5 2 2 5 1 3 5 5 6 13 11 9 13 11 13 13 9 6 11 16 18 20 20 19 18 15 13 13 13 11 10 12 9 8 10
2 4 8 5 5 4 5 4 6 5 3 4 1 4 4 7 7 9 9 6 8 13 13 17 14 11 8 6 4 15 18 19 16 16 16 15 13 12 11 12 10 11 7 10
3 5 1 8 6 3 4 4 5 5 5 0 5 4 4 2 7 8 10 8 5 13 15 17 17 20 11 5 6 11 15 16 18 18 15 15 13 12 12 13 12 11 11 9
2 2 3 10 8 9 7 6 2 4 3 1 4 5 5 6 4 4 10 10 8 6 5 7 5 10 13 12 17 7 9 15 14 12 14 13 12 12 13 13 12 13 10 11
8 3 6 5 7 4 7 7 3 5 3 3 5 4 6 8 8 4 4 9 10 8 8 6 4 7 7 9 10 5 7 11 13 14 14 13 14 14 13 13 14 13 13 11
4 1 2 5 6 1 3 6 8 2 5 3 8 6 6 9 10 5 4 7 10 7 6 6 4 6 7 8 7 3 2 4 8 13 14 16 14 14 14 13 12 11 9 11
5 2 2 5 7 7 4 7 8 6 4 1 4 7 5 9 12 12 8 5 6 7 6 3 1 4 9 10 11 8 4 8 6 13 15 9 11 11 10 9 11 8 7 7
1 2 3 6 5 5 6 5 5 4 3 6 6 1 5 16 18 11 10 16 13 10 10 5 3 6 2 7 12 14 16 10 8 11 9 15 12 4 3 4 6 7 9 7
4 4 4 4 3 4 8 6 4 9 7 9 11 8 9 10 6 6 5 6 7 6 4 3 3 8 11 15 17 10 6 6 12 12 9 11 8 7 15 16 6 6 5 7
9 5 2 4 4 5 7 6 4 6 4 2 11 7 5 7 6 7 4 2 3 4 7 7 12 12 8 14 18 12 7 4 3 2 2 4 20 6 12 15 9 5 4 4
7 5 5 3 4 6 7 6 1 5 3 4 8 7 8 6 6 4 6 5 7 5 4 4 7 7 9 6 9 2 1 3 5 7 8 10 7 6 8 9 10 5 4 6
3 3 6 3 3 6 6 4 2 2 6 2 7 7 9 7 4 3 2 4 3 4 7 6 1 6 6 7 7 9 8 8 7 5 7 6 6 7 6 5 4 4 5 4
6 5 4 3 2 3 3 4 5 6 3 7 6 5 7 6 7 7 7 7 6 6 6 8 7 5 4 6 5 5 6 9 7 5 6 7 7 7 6 7 5 4 5 5
3 5 5 8 6 7 1 9 7 7 7 4 7 5 7 7 6 6 4 7 8 6 5 5 6 8 8 5 3 5 7 6 5 5 6 6 6 4 6 6 6 4 5 4
5 2 3 3 3 4 5 5 7 8 8 6 6 7 7 8 6 4 3 4 5 5 7 6 9 8 7 7 7 7 8 8 7 8 9 6 5 6 6 4 6 6 5 4
5 4 0 2 4 8 3 6 8 8 8 8 7 8 8 7 3 3 5 6 5 4 4 4 5 4 6 5 4 6 8 6 10 12 10 8 6 7 8 10 7 3 7 7
3 5 3 5 7 5 6 6 8 8 6 7 8 5 4 6 7 7 6 3 2 5 5 6 7 5 6 7 8 6 5 4 7 10 11 12 11 10 8 11 11 10 13 11
Wind_Direction
305 27 273 272 205 239 184 193 228 254 118 131 137 148 163 195 192 190 195 198 195 197 202 205 206 208 217 213 201 186 176 175 170 163 167 169 192 182 153 86 220 189 179 180
353 273 261 267 276 210 170 123 250 297 150 87 127 156 196 231 191 200 195 200 203 206 203 210 210 202 209 216 194 180 179 171 178 177 180 158 148 141 130 160 200 198 209 196
183 255 303 231 280 28 323 189 230 164 68 77 119 201 237 258 296 238 233 212 206 202 205 206 212 207 201 193 183 178 178 178 180 182 141 86 82 70 83 218 241 271 187 185
240 289 291 157 3 98 326 200 241 141 113 168 220 235 246 243 244 232 247 216 208 210 211 207 204 207 197 185 179 170 173 176 180 173 167 162 169 163 196 184 183 201 192 223
261 293 315 13 223 171 237 295 281 248 142 116 220 119 277 147 247 246 239 215 210 207 207 208 203 204 195 179 177 172 169 173 176 180 178 180 164 164 167 178 172 214 232 217
247 246 229 219 265 224 298 333 1 48 110 14 220 127 258 187 219 217 201 225 208 206 207 207 202 194 186 174 170 168 167 176 177 181 183 179 185 156 162 161 221 215 232 250
313 275 296 186 345 347 53 43 351 1 16 217 101 62 222 219 224 221 246 253 210 203 204 200 191 185 172 168 167 167 169 176 180 184 186 183 176 171 184 187 182 202 219 224
24 342 202 217 169 195 66 132 143 290 307 272 23 214 269 219 208 277 219 73 46 211 199 193 184 178 170 163 165 167 173 174 178 183 190 183 173 182 186 188 190 205 217 224
42 317 326 324 232 112 309 1 187 109 333 55 292 323 350 25 85 56 62 45 37 350 184 198 180 149 141 163 171 171 175 180 183 189 190 191 180 173 189 190 199 207 188 204
334 25 325 305 27 334 131 233 29 14 46 24 306 327 241 78 64 52 66 61 37 36 49 70 81 97 109 165 178 178 178 180 189 190 191 196 197 199 189 186 205 211 183 199
127 93 298 22 2 308 356 354 44 108 107 155 236 280 244 182 139 94 99 93 87 74 75 86 83 55 357 34 182 194 188 187 188 192 197 196 201 200 195 199 200 206 197 203
333 133 170 251 264 291 132 8 110 110 297 156 157 266 287 231 145 131 117 134 126 125 129 132 134 136 168 150 259 218 203 197 193 195 196 202 197 197 194 202 207 199 196 203
288 17 22 347 350 8 43 338 33 115 85 160 80 263 282 266 232 169 133 142 153 153 161 150 176 189 191 184 216 160 177 209 206 197 194 200 198 194 204 210 207 209 190 199
88 91 143 184 222 228 328 325 10 107 61 181 204 245 270 251 246 236 185 168 154 168 181 193 205 229 227 237 229 172 163 202 204 195 190 195 203 204 202 205 209 209 201 191
79 103 163 246 233 325 301 327 323 346 228 180 253 219 310 268 222 224 219 146 147 166 175 183 236 263 235 247 264 111 104 211 214 201 201 201 201 206 216 213 211 212 198 196
2 264 70 325 318 357 316 301 315 328 273 30 22 63 316 44 52 31 3 22 92 92 61 356 3 334 316 317 308 317 298 290 250 221 206 180 181 185 185 190 188 191 201 202
130 99 49 288 310 355 333 257 274 270 290 151 77 151 278 56 57 46 43 66 72 91 137 169 208 218 187 340 338 325 321 322 293 230 196 187 175 188 302 138 105 194 192 174
210 129 127 228 38 336 242 267 232 103 79 87 94 134 97 107 104 64 1 96 142 165 149 223 312 359 49 92 32 358 15 27 358 334 345 18 343 62 49 310 232 215 172 169
182 129 141 157 182 280 324 327 151 130 23 47 103 95 118 171 121 44 12 80 293 40 196 117 102 109 104 114 155 221 94 37 142 214 28 40 261 127 183 225 229 204 194 179
99 109 138 141 157 213 229 285 173 114 40 318 107 108 92 71 65 295 317 337 1 16 322 322 106 127 139 167 199 184 233 150 258 223 210 220 236 217 183 209 238 212 197 206
326 335 169 160 182 272 239 284 346 150 211 133 91 80 65 75 159 235 327 36 23 3 350 323 310 158 197 202 179 188 227 227 236 241 219 217 205 212 220 224 225 218 220 217
200 178 214 91 144 254 234 47 138 194 170 129 100 104 93 104 66 50 34 28 31 30 15 6 357 27 193 210 215 215 244 250 235 223 213 189 198 189 202 199 238 236 227 198
318 193 192 169 206 209 251 140 159 156 133 132 113 130 109 93 86 73 42 9 357 30 69 69 63 22 4 331 319 247 252 264 288 300 282 285 282 223 182 174 198 210 216 220
308 359 74 72 356 165 110 85 112 125 126 130 116 109 96 107 86 67 28 13 42 27 33 35 42 38 29 354 314 273 294 299 311 276 276 290 303 308 321 292 205 180 196 205
212 5 213 336 273 59 40 125 134 122 123 113 93 108 118 103 75 78 42 60 58 47 34 56 74 46 355 352 331 302 287 262 260 267 269 266 268 272 276 279 293 235 250 221
174 194 132 225 231 156 194 178 141 123 125 110 113 92 101 75 76 92 92 111 78 38 26 28 16 13 339 339 330 328 357 304 257 265 270 268 262 260 261 258 256 244 250 245